Details for BA SUN-AIR of Scandinavia at EKBI




Go Back


Latest METAR
Local Time

EKBI 221050Z 26020G31KT 9999 SCT020CB SCT036 14/06 Q1008
22/09/2018, 13:10:02

Description
Results
BA SUN-AIR of Scandinavia Logo
Number of Pilots based at EKBI
0 Pilots Based here
Number of BA SUN-AIR of Scandinavia Flights Departed from EKBI
0 Flights Departed
Number of BA SUN-AIR of Scandinavia Flights Arrived at EKBI
0 Flights Arrived
Number of BA SUN-AIR of Scandinavia Schedules Departing from EKBI
10 Schedules
Number of BA SUN-AIR of Scandinavia Schedules Arriving at EKBI
11 Schedules
Number of BA SUN-AIR of Scandinavia Schedules Departing from EKBI availible today
0 Schedules Today
Number of BA SUN-AIR of Scandinavia Schedules Arriving at EKBI availible today
0 Schedules Today
Average Landing Rate at EKBI
-313 fpm
BA SUN-AIR of Scandinavia Average Landing Rate at EKBI
0 fpm
Total Fuel Purchased at EKBI by BA SUN-AIR of Scandinavia
0.00 kgs / 0.00 lbs

Pilots Based at EKBI


Pilot ID
Pilot Name
Pilot Rank
No. of Flights
No. of Flying Hours
There are no pilots assigned to this hub!   Will you be the first?
Content